Вернуться в каталог

STARLINK-3127

АктивенСвязьVLEO
NORAD 49450·PAYLOAD·🇺🇸 United States

Запущен Nov 13, 2021 с Cape Canaveral Space Force Station

Loading…

Ближайшие Пролёты (ближайшие 24 часа)

TLE

СвежийSource: CelesTrak SupGP

Эпоха: Sep 14, 2026, 13:46 UTC

1 49450C 21104AU  26257.57409722 -.00007434  00000+0 -21962-3 0  2577
2 49450  53.1595  79.7555 0001123  92.9634 230.2360 15.34397094    12

Отслеживайте STARLINK-3127 в реальном времени с AllMySat

Download on the App Store